Location: Stonelick Lake State Park
(39.2170°N, 84.0850°W)
Time: 18:14:30
(UTC-04:00)

Amateur Radio Satellites - All Passes

Search period start: 28 March 2015 17:44
Search period end: 29 March 2015 17:44
Location: Stonelick Lake State Park, 39.2170°N, 84.0850°W

Satellite Date Start Highest point End Downlink Frequencies (MHz)
Time Altitude Azimuth
JAS-2 28 Mar 17:50:01 17:56:30 47° 264° (W) 18:03:39 435.910
M-CUBED/EXP-1 PRIME 28 Mar 17:50:45 17:52:42 13° 93° (E) 17:54:54 437.505
KKS-1 28 Mar 17:51:07 17:53:26 14° 295° (WNW) 17:55:32 437.445
RS-15 28 Mar 18:11:57 18:16:53 15° 100° (E) 18:22:46 29.354- 29.394
SRMSAT 28 Mar 18:29:16 18:30:42 11° 178° (S) 18:32:09 437.500
AO-7 28 Mar 18:44:27 18:49:49 17° 271° (W) 18:54:40 29.400- 29.500
SO-50 28 Mar 18:52:06 18:54:19 14° 109° (ESE) 18:56:49 436.795
AUBIESAT-1 28 Mar 18:59:41 19:04:29 60° 105° (ESE) 19:09:09 437.475
BEESAT 2 28 Mar 19:01:17 19:02:02 10° 39° (NE) 19:02:59 435.950
Cubesat XI-IV 28 Mar 19:03:19 19:08:42 82° 76° (ENE) 19:14:06 437.490
CUTE-I 28 Mar 19:03:27 19:08:48 81° 76° (ENE) 19:14:12 437.470
PRISM 28 Mar 19:04:40 19:05:29 11° 89° (E) 19:06:34 437.425
MOZHAYETS 4 28 Mar 19:17:34 19:21:32 27° 290° (WNW) 19:25:23
M-CUBED/EXP-1 PRIME 28 Mar 19:23:15 19:28:07 70° 289° (WNW) 19:32:51 437.505
CUBESAT XI-V 28 Mar 19:24:41 19:28:35 27° 94° (E) 19:32:31 437.345
BEESAT 3 28 Mar 19:37:32 19:40:55 24° 48° (NE) 19:44:19 437.485
HO-68 28 Mar 19:43:58 19:47:46 16° 56° (NE) 19:51:55 435.675
STRAND 1 28 Mar 19:48:47 19:52:59 26° 94° (E) 19:57:15 437.568
AIST 2 28 Mar 20:06:06 20:08:49 17° 44° (NE) 20:11:36 435.215
RS-15 28 Mar 20:16:49 20:27:39 77° 117° (ESE) 20:38:41 29.354- 29.394
GONETS M04 28 Mar 20:17:22 20:25:49 61° 92° (E) 20:34:23
CUTE 1.7 + AOD 2 28 Mar 20:26:28 20:28:20 13° 66° (ENE) 20:30:24 437.475
SO-50 28 Mar 20:29:47 20:34:22 63° 305° (NW) 20:39:08 436.795
AUBIESAT-1 28 Mar 20:35:43 20:38:50 17° 300° (WNW) 20:41:44 437.475
BEESAT 2 28 Mar 20:36:46 20:40:56 83° 57° (ENE) 20:45:01 435.950
BRITE-PL 28 Mar 20:36:51 20:41:06 34° 72° (ENE) 20:45:09 437.365/2234.400
PRISM 28 Mar 20:37:18 20:41:26 57° 286° (WNW) 20:45:30 437.425
Cubesat XI-IV 28 Mar 20:47:43 20:49:34 11° 273° (W) 20:51:02 437.490
CUTE-I 28 Mar 20:47:44 20:49:39 11° 273° (W) 20:51:10 437.470
AAUSAT CUBESAT 2 28 Mar 20:53:53 20:56:15 15° 67° (ENE) 20:58:48 437.432
SEEDS 28 Mar 20:55:32 20:58:47 23° 69° (ENE) 21:02:08 437.485
CUBESAT XI-V 28 Mar 21:02:02 21:06:00 28° 290° (WNW) 21:09:53 437.345
CINEMA 3 28 Mar 21:08:50 21:11:11 15° 68° (ENE) 21:13:41 145.822/145.860
Oscar 11 28 Mar 21:13:18 21:15:02 13° 65° (ENE) 21:16:59 145.826/435.025
CUSAT 1 28 Mar 21:14:48 21:16:01 12° 95° (E) 21:17:16 437.405
BEESAT 3 28 Mar 21:15:22 21:19:01 30° 246° (WSW) 21:22:33 437.485
COMPASS 1 28 Mar 21:18:46 21:22:30 33° 72° (ENE) 21:26:19 437.405
DOVE 4 28 Mar 21:21:04 21:25:11 41° 73° (ENE) 21:29:10 437.250
CUBEBUG 2 28 Mar 21:27:13 21:28:59 13° 66° (ENE) 21:30:56 437.445
HO-68 28 Mar 21:27:24 21:34:33 82° 73° (ENE) 21:41:47 435.675
STRAND 1 28 Mar 21:27:38 21:32:16 35° 290° (WNW) 21:36:49 437.568
GOMX 1 28 Mar 21:27:45 21:32:19 78° 77° (ENE) 21:36:38 467.674
ZACube-1 28 Mar 21:35:59 21:36:24 10° 65° (ENE) 21:37:05 437.345
AIST 2 28 Mar 21:43:38 21:47:48 55° 242° (WSW) 21:51:52 435.215
CANX-2 28 Mar 21:45:32 21:49:45 72° 259° (W) 21:54:01 2200.000
DANDE 28 Mar 21:57:13 22:00:18 40° 98° (E) 22:02:57 436.750
CUTE 1.7 + AOD 2 28 Mar 21:59:43 22:03:51 53° 261° (W) 22:08:01 437.475
DELFI C3 28 Mar 22:12:21 22:16:09 41° 73° (ENE) 22:20:02 145.870
SO-50 28 Mar 22:14:48 22:16:00 11° 325° (NW) 22:17:00 436.795
GONETS M04 28 Mar 22:15:59 22:23:19 28° 293° (WNW) 22:30:27
BRITE-PL 28 Mar 22:16:00 22:19:43 22° 266° (W) 22:23:09 437.365/2234.400
UKube-1 28 Mar 22:17:29 22:21:00 25° 69° (ENE) 22:24:37 .
DX 1 28 Mar 22:26:11 22:30:03 33° 71° (ENE) 22:34:00 434.975-435.025
AAUSAT CUBESAT 2 28 Mar 22:27:36 22:31:35 42° 262° (W) 22:35:35 437.432
HUMSAT D 28 Mar 22:30:45 22:33:50 22° 69° (ENE) 22:37:02 437.325/437.525
SEEDS 28 Mar 22:30:49 22:34:29 28° 265° (W) 22:38:08 437.485
RS-15 28 Mar 22:31:31 22:41:15 34° 323° (NW) 22:51:02 29.354- 29.394
CINEMA 3 28 Mar 22:44:07 22:48:08 41° 262° (W) 22:52:05 145.822/145.860
Oscar 11 28 Mar 22:46:32 22:50:47 58° 260° (W) 22:55:05 145.826/435.025
COMPASS 1 28 Mar 22:55:18 22:58:20 19° 268° (W) 23:01:15 437.405
FUNcube-1 28 Mar 22:55:35 22:59:43 86° 78° (ENE) 23:03:53 145.935
CUSAT 1 28 Mar 22:57:14 22:58:44 13° 286° (WNW) 23:00:05 437.405
UWE-3 28 Mar 22:57:47 23:01:55 69° 259° (WSW) 23:06:04 435.000/436.395/437.385
DOVE 4 28 Mar 23:00:33 23:03:12 15° 268° (W) 23:05:37 437.250
CUBEBUG 2 28 Mar 23:01:16 23:05:19 50° 261° (W) 23:09:23 437.445
VELOX 1 28 Mar 23:02:47 23:06:48 35° 71° (ENE) 23:10:52 145.980
CUBEBUG 1 28 Mar 23:06:31 23:09:20 17° 67° (ENE) 23:12:19 437.445
AISAT 28 Mar 23:06:59 23:11:07 40° 72° (ENE) 23:15:17 437.250
ZACube-1 28 Mar 23:08:12 23:12:18 65° 259° (WSW) 23:16:27 437.345
UNISAT 6 28 Mar 23:09:09 23:11:42 15° 91° (E) 23:14:28 437.425
HO-68 28 Mar 23:18:43 23:23:14 17° 272° (W) 23:27:19 435.675
TIGRISAT 28 Mar 23:19:16 23:22:27 19° 92° (E) 23:25:48 435.000
50 SAT 28 Mar 23:25:14 23:29:04 61° 75° (ENE) 23:32:58 437.505
ESTCUBE 1 28 Mar 23:33:46 23:37:58 38° 71° (ENE) 23:42:13 437.505/2401.250
ANTELSAT 28 Mar 23:48:18 23:52:36 40° 98° (E) 23:57:01 437.575/2403.000
DELFI C3 28 Mar 23:49:17 23:51:37 14° 270° (W) 23:53:44 145.870
UKube-1 28 Mar 23:53:22 23:57:06 27° 264° (W) 00:00:46 .
QB50P1 28 Mar 23:56:13 23:59:34 23° 94° (E) 00:02:59 145.935-145.965
ISS 28 Mar 23:57:54 00:01:10 80° 141° (SE) 00:04:25 145.825
DUCHIFAT 1 28 Mar 23:58:30 00:01:53 24° 94° (E) 00:05:20 145.980
DX 1 29 Mar 00:03:04 00:06:25 21° 267° (W) 00:09:38 434.975-435.025
HUMSAT D 29 Mar 00:05:57 00:09:30 28° 265° (W) 00:13:01 437.325/437.525
QB50P2 29 Mar 00:10:24 00:14:15 34° 97° (E) 00:18:09 145.880/145.840
PCSat 29 Mar 00:16:19 00:20:58 29° 51° (NE) 00:25:40 145.827
YUBILEINY 29 Mar 00:16:47 00:22:04 18° 60° (ENE) 00:27:50 435.215
POPSAT HIP 1 29 Mar 00:39:05 00:43:19 74° 102° (ESE) 00:47:33 437.405
VELOX 1 29 Mar 00:40:08 00:43:30 20° 267° (W) 00:46:44 145.980
CUBEBUG 1 29 Mar 00:41:14 00:45:26 41° 262° (W) 00:49:37 437.445
BUGSAT 1 29 Mar 00:42:23 00:46:21 55° 100° (E) 00:50:18 437.445
UNISAT 6 29 Mar 00:44:22 00:48:48 50° 287° (WNW) 00:53:18 437.425
AISAT 29 Mar 00:44:52 00:47:56 18° 268° (W) 00:50:51 437.250
TISAT 1 29 Mar 00:45:28 00:49:28 44° 73° (ENE) 00:53:30 437.305
NANOSAT C BR1 29 Mar 00:50:01 00:54:15 83° 284° (WNW) 00:58:29 145.865
RS-15 29 Mar 00:51:32 00:58:28 18° 357° (N) 01:05:32 29.354- 29.394
SPROUT 29 Mar 00:52:56 00:57:11 64° 76° (ENE) 01:01:27 437.525
POLYITAN 1 29 Mar 00:53:35 00:57:50 74° 284° (WNW) 01:02:04 437.675
TIGRISAT 29 Mar 00:55:06 00:59:23 40° 287° (WNW) 01:03:41 435.000
ESTCUBE 1 29 Mar 01:11:42 01:15:01 19° 268° (W) 01:18:12 437.505/2401.250
SWISSCUBE 29 Mar 01:13:01 01:16:02 17° 65° (ENE) 01:19:13 437.505
BEESAT 29 Mar 01:16:10 01:19:08 17° 65° (ENE) 01:22:16 436.000
ANTELSAT 29 Mar 01:25:49 01:29:10 20° 292° (WNW) 01:32:27 437.575/2403.000
QB50P1 29 Mar 01:31:49 01:35:27 27° 290° (WNW) 01:39:01 145.935-145.965
DUCHIFAT 1 29 Mar 01:34:08 01:37:43 26° 290° (WNW) 01:41:12 145.980
ISS 29 Mar 01:35:37 01:37:55 17° 338° (NNW) 01:40:12 145.825
QB50P2 29 Mar 01:46:53 01:49:58 19° 292° (WNW) 01:52:56 145.880/145.840
PCSat 29 Mar 01:59:27 02:04:31 40° 249° (WSW) 02:09:31 145.827
ITUPSAT 1 29 Mar 02:00:46 02:05:21 46° 72° (ENE) 02:09:58 437.325
YUBILEINY 29 Mar 02:11:33 02:20:26 88° 84° (E) 02:29:13 435.215
BUGSAT 1 29 Mar 02:19:59 02:21:27 11° 294° (WNW) 02:22:41 437.445
Oscar 19 29 Mar 02:21:07 02:25:24 27° 94° (E) 02:29:48 437.125/150
TISAT 1 29 Mar 02:23:09 02:25:33 14° 269° (W) 02:27:46 437.305
SWISSCUBE 29 Mar 02:48:52 02:53:32 51° 260° (W) 02:58:14 437.505
BEESAT 29 Mar 02:51:57 02:56:37 51° 261° (W) 03:01:18 436.000
RS-15 29 Mar 03:06:56 03:16:14 29° 31° (NNE) 03:26:07 29.354- 29.394
KKS-1 29 Mar 03:09:59 03:14:11 45° 73° (ENE) 03:18:26 437.445
SO-50 29 Mar 03:23:12 03:25:49 14° 39° (NE) 03:28:36 436.795
ITAMSAT 1 29 Mar 03:25:01 03:29:41 34° 96° (E) 03:34:23 435.822/435.867
ITUPSAT 1 29 Mar 03:40:12 03:43:32 18° 269° (W) 03:46:41 437.325
STARS 29 Mar 03:43:12 03:47:32 67° 76° (ENE) 03:51:54 437.465
Oscar 19 29 Mar 04:00:09 04:04:50 35° 290° (WNW) 04:09:27 437.125/150
Gurwin Techsat 1B 29 Mar 04:10:17 04:15:37 76° 101° (ESE) 04:20:56 435.225
YUBILEINY 29 Mar 04:10:46 04:16:12 17° 280° (W) 04:21:06 435.215
M-CUBED/EXP-1 PRIME 29 Mar 04:38:54 04:40:40 13° 58° (ENE) 04:42:39 437.505
MOZHAYETS 4 29 Mar 04:41:37 04:45:17 24° 69° (ENE) 04:49:03
KKS-1 29 Mar 04:48:22 04:51:07 16° 269° (W) 04:53:42 437.445
AIST 1 29 Mar 04:49:29 04:53:37 41° 93° (E) 04:57:47
AO-7 29 Mar 04:50:56 04:58:00 32° 95° (E) 05:05:16 29.400- 29.500
ISS 29 Mar 04:50:57 04:52:53 15° 18° (NNE) 04:54:50 145.825
O/OREOS (USA 219) 29 Mar 04:51:36 04:56:03 51° 107° (ESE) 05:00:32 437.305
JAS-2 29 Mar 05:01:04 05:07:52 34° 92° (E) 05:14:17 435.910
SO-50 29 Mar 05:02:11 05:07:10 86° 57° (ENE) 05:12:05 436.795
ITAMSAT 1 29 Mar 05:04:42 05:09:06 28° 292° (WNW) 05:13:23 435.822/435.867
HORYU 2 29 Mar 05:14:43 05:19:15 82° 103° (ESE) 05:23:46 437.375
RS-15 29 Mar 05:19:10 05:30:45 82° 58° (ENE) 05:42:51 29.354- 29.394
VERMONT LUNAR 29 Mar 05:42:36 05:44:58 18° 149° (SSE) 05:47:23 437.305
AUBIESAT-1 29 Mar 05:46:59 05:50:54 61° 70° (ENE) 05:55:12 437.475
Gurwin Techsat 1B 29 Mar 05:52:15 05:55:02 14° 298° (WNW) 05:57:32 435.225
M-CUBED/EXP-1 PRIME 29 Mar 06:11:06 06:15:00 60° 255° (WSW) 06:19:16 437.505
MOZHAYETS 4 29 Mar 06:18:14 06:22:23 32° 264° (W) 06:26:31
PHONESAT 2.4 29 Mar 06:19:30 06:21:40 16° 147° (SSE) 06:23:54 2401.200-2431.200
ISS 29 Mar 06:26:33 06:29:47 71° 38° (NE) 06:32:59 145.825
CUBESAT XI-V 29 Mar 06:27:17 06:31:02 25° 69° (ENE) 06:34:53 437.345
AIST 1 29 Mar 06:28:45 06:31:33 16° 290° (WNW) 06:34:11
GONETS M04 29 Mar 06:29:22 06:36:35 28° 68° (ENE) 06:44:04
O/OREOS (USA 219) 29 Mar 06:32:50 06:35:51 17° 305° (NW) 06:38:44 437.305
AO-7 29 Mar 06:43:10 06:51:12 56° 294° (WNW) 06:59:11 29.400- 29.500
JAS-2 29 Mar 06:45:42 06:53:06 48° 291° (WNW) 06:59:53 435.910
SO-50 29 Mar 06:46:00 06:47:07 10° 252° (WSW) 06:47:55 436.795
STRAND 1 29 Mar 07:03:32 07:08:07 34° 69° (ENE) 07:12:46 437.568
VERMONT LUNAR 29 Mar 07:19:01 07:22:21 72° 164° (SSE) 07:25:42 437.305
CUTE-I 29 Mar 07:22:02 07:26:52 35° 97° (E) 07:31:42 437.470
Cubesat XI-IV 29 Mar 07:22:06 07:26:57 35° 97° (E) 07:31:48 437.490
AUBIESAT-1 29 Mar 07:25:38 07:26:22 10° 269° (W) 07:26:50 437.475
PRISM 29 Mar 07:26:09 07:30:22 88° 77° (ENE) 07:34:37 437.425
RS-15 29 Mar 07:33:06 07:42:15 26° 255° (WSW) 07:51:04 29.354- 29.394
CUSAT 1 29 Mar 07:49:19 07:52:08 17° 74° (ENE) 07:55:39 437.405
PHONESAT 2.4 29 Mar 07:56:08 07:59:37 62° 162° (SSE) 08:03:08 2401.200-2431.200
CUBESAT XI-V 29 Mar 08:04:07 08:08:22 32° 264° (W) 08:12:34 437.345
ISS 29 Mar 08:04:53 08:05:48 11° 231° (SW) 08:06:35 145.825
GONETS M04 29 Mar 08:25:26 08:34:06 61° 268° (W) 08:42:43
DANDE 29 Mar 08:35:34 08:39:18 35° 79° (ENE) 08:44:12 436.750
AO-7 29 Mar 08:39:31 08:42:24 12° 313° (NW) 08:44:45 29.400- 29.500
STRAND 1 29 Mar 08:43:01 08:47:23 27° 265° (W) 08:51:40 437.568
VERMONT LUNAR 29 Mar 08:56:47 09:00:07 67° 0° (N) 09:03:29 437.305
HO-68 29 Mar 08:58:30 09:02:19 16° 88° (E) 09:06:33 435.675
CUTE-I 29 Mar 09:02:18 09:06:51 28° 292° (WNW) 09:11:16 437.470
Cubesat XI-IV 29 Mar 09:02:25 09:06:57 28° 292° (WNW) 09:11:22 437.490
DOVE 4 29 Mar 09:22:34 09:24:04 12° 90° (E) 09:25:52 437.250
CUSAT 1 29 Mar 09:30:42 09:34:54 45° 263° (W) 09:40:24 437.405
GOMX 1 29 Mar 09:30:46 09:34:06 22° 94° (E) 09:37:39 467.674
CANX-2 29 Mar 09:32:43 09:35:59 21° 93° (E) 09:39:21 2200.000
PHONESAT 2.4 29 Mar 09:34:28 09:38:00 69° 358° (N) 09:41:32 2401.200-2431.200
CUTE 1.7 + AOD 2 29 Mar 09:46:23 09:50:04 27° 95° (E) 09:53:47 437.475
UNISAT 6 29 Mar 10:09:02 10:10:19 11° 64° (ENE) 10:11:49 437.425
AAUSAT CUBESAT 2 29 Mar 10:11:55 10:15:40 31° 96° (E) 10:19:27 437.432
SEEDS 29 Mar 10:15:42 10:19:53 49° 99° (E) 10:24:02 437.485
TIGRISAT 29 Mar 10:18:27 10:20:37 14° 66° (ENE) 10:22:59 435.000
DANDE 29 Mar 10:19:27 10:22:35 19° 264° (W) 10:26:09 436.750
BRITE-PL 29 Mar 10:20:09 10:24:19 64° 284° (WNW) 10:28:39 437.365/2234.400
BEESAT 2 29 Mar 10:30:56 10:33:56 20° 112° (ESE) 10:37:03 435.950
VERMONT LUNAR 29 Mar 10:34:32 10:37:53 70° 197° (SSW) 10:41:15 437.305
Oscar 11 29 Mar 10:35:21 10:39:01 27° 95° (E) 10:42:45 145.826/435.025
COMPASS 1 29 Mar 10:38:29 10:42:46 75° 102° (ESE) 10:47:00 437.405
CINEMA 3 29 Mar 10:39:16 10:43:30 44° 99° (E) 10:47:56 145.822/145.860
HO-68 29 Mar 10:43:47 10:51:02 87° 287° (WNW) 10:58:15 435.675
FUNcube-1 29 Mar 10:45:47 10:48:46 18° 92° (E) 10:51:56 145.935
ANTELSAT 29 Mar 10:46:55 10:50:36 30° 70° (ENE) 10:54:23 437.575/2403.000
UWE-3 29 Mar 10:48:53 10:52:31 25° 95° (E) 10:56:18 435.000/436.395/437.385
QB50P1 29 Mar 10:49:00 10:51:33 16° 67° (ENE) 10:54:15 145.935-145.965
DUCHIFAT 1 29 Mar 10:50:56 10:53:33 17° 67° (ENE) 10:56:17 145.980
CUBEBUG 2 29 Mar 10:53:05 10:57:07 34° 97° (E) 11:01:17 437.445
DOVE 4 29 Mar 10:57:59 11:02:14 57° 285° (WNW) 11:06:41 437.250
ZACube-1 29 Mar 10:58:04 11:01:42 25° 95° (E) 11:05:27 437.345
QB50P2 29 Mar 11:02:54 11:06:12 23° 70° (ENE) 11:09:36 145.880/145.840
BEESAT 3 29 Mar 11:07:06 11:11:07 61° 119° (ESE) 11:15:13 437.485
CANX-2 29 Mar 11:08:09 11:11:59 31° 289° (WNW) 11:15:45 2200.000
GOMX 1 29 Mar 11:08:34 11:12:18 29° 288° (WNW) 11:16:08 467.674
PHONESAT 2.4 29 Mar 11:12:53 11:16:26 80° 196° (SSW) 11:19:59 2401.200-2431.200
CUTE 1.7 + AOD 2 29 Mar 11:22:22 11:25:54 24° 290° (WNW) 11:29:21 437.475
DELFI C3 29 Mar 11:27:57 11:32:05 85° 100° (E) 11:36:10 145.870
POPSAT HIP 1 29 Mar 11:30:54 11:34:57 47° 73° (ENE) 11:39:01 437.405
BUGSAT 1 29 Mar 11:31:35 11:35:20 33° 72° (ENE) 11:39:05 437.445
AIST 2 29 Mar 11:40:33 11:44:30 39° 116° (ESE) 11:48:32 435.215
UKube-1 29 Mar 11:41:20 11:45:33 52° 100° (E) 11:49:46 .
NANOSAT C BR1 29 Mar 11:41:28 11:45:38 63° 75° (ENE) 11:49:48 145.865
UNISAT 6 29 Mar 11:42:24 11:46:37 63° 259° (W) 11:50:54 437.425
POLYITAN 1 29 Mar 11:45:29 11:49:41 72° 76° (ENE) 11:53:54 437.675
AAUSAT CUBESAT 2 29 Mar 11:47:55 11:51:09 21° 291° (WNW) 11:54:17 437.432
HUMSAT D 29 Mar 11:50:26 11:54:33 47° 99° (E) 11:58:43 437.325/437.525
DX 1 29 Mar 11:51:11 11:55:32 73° 102° (ESE) 11:59:50 434.975-435.025
TIGRISAT 29 Mar 11:52:54 11:57:01 48° 261° (W) 12:01:11 435.000
SEEDS 29 Mar 11:52:57 11:55:19 14° 294° (WNW) 11:57:30 437.485
BEESAT 2 29 Mar 12:08:03 12:11:52 35° 308° (NW) 12:15:44 435.950
Oscar 11 29 Mar 12:11:30 12:15:09 26° 290° (WNW) 12:18:42 145.826/435.025
VERMONT LUNAR 29 Mar 12:12:54 12:15:16 18° 211° (SSW) 12:17:36 437.305
CINEMA 3 29 Mar 12:17:34 12:20:28 17° 292° (WNW) 12:23:16 145.822/145.860
FUNcube-1 29 Mar 12:21:12 12:25:16 38° 287° (WNW) 12:29:24 145.935
QB50P1 29 Mar 12:23:09 12:27:09 41° 262° (W) 12:31:09 145.935-145.965
ANTELSAT 29 Mar 12:24:07 12:27:28 22° 267° (W) 12:30:45 437.575/2403.000
DUCHIFAT 1 29 Mar 12:25:09 12:29:07 39° 262° (W) 12:33:04 145.980
UWE-3 29 Mar 12:25:14 12:29:02 28° 289° (WNW) 12:32:52 435.000/436.395/437.385
CUBEBUG 2 29 Mar 12:30:15 12:33:40 22° 291° (WNW) 12:37:02 437.445
VELOX 1 29 Mar 12:30:25 12:34:51 83° 103° (ESE) 12:39:15 145.980
CUBEBUG 1 29 Mar 12:31:14 12:35:14 37° 97° (E) 12:39:15 437.445
HO-68 29 Mar 12:33:29 12:37:53 17° 304° (WNW) 12:41:57 435.675
ZACube-1 29 Mar 12:34:17 12:38:03 28° 289° (WNW) 12:41:48 437.345
AISAT 29 Mar 12:35:02 12:39:28 85° 283° (WNW) 12:43:51 437.250
QB50P2 29 Mar 12:38:23 12:42:01 27° 265° (W) 12:45:37 145.880/145.840
50 SAT 29 Mar 12:38:49 12:42:50 68° 284° (WNW) 12:46:52 437.505
SPROUT 29 Mar 12:42:50 12:44:24 12° 89° (E) 12:46:13 437.525
BEESAT 3 29 Mar 12:47:11 12:49:38 15° 317° (NW) 12:51:58 437.485
PHONESAT 2.4 29 Mar 12:51:39 12:54:30 22° 210° (SSW) 12:57:21 2401.200-2431.200
ESTCUBE 1 29 Mar 13:03:58 13:08:31 83° 284° (WNW) 13:13:01 437.505/2401.250
BUGSAT 1 29 Mar 13:07:59 13:10:57 18° 267° (W) 13:13:45 437.445
POPSAT HIP 1 29 Mar 13:08:59 13:11:10 13° 270° (W) 13:13:08 437.405
YUBILEINY 29 Mar 13:17:38 13:23:19 20° 81° (E) 13:29:29 435.215
UKube-1 29 Mar 13:18:59 13:21:19 14° 295° (WNW) 13:23:28 .
AIST 2 29 Mar 13:19:55 13:23:16 22° 313° (NW) 13:26:35 435.215
HUMSAT D 29 Mar 13:27:33 13:29:59 15° 293° (WNW) 13:32:16 437.325/437.525
DX 1 29 Mar 13:30:22 13:31:15 10° 297° (WNW) 13:31:53 434.975-435.025
Oscar 19 29 Mar 13:36:56 13:41:30 35° 70° (ENE) 13:46:09 437.125/150
Gurwin Techsat 1B 29 Mar 13:53:45 13:56:14 14° 62° (ENE) 13:58:58 435.225
ITUPSAT 1 29 Mar 14:04:25 14:06:25 13° 89° (E) 14:08:40 437.325
TISAT 1 29 Mar 14:06:37 14:10:50 84° 284° (WNW) 14:15:02 437.305
CUBEBUG 1 29 Mar 14:08:18 14:11:24 19° 292° (WNW) 14:14:20 437.445
SPROUT 29 Mar 14:16:43 14:20:54 53° 286° (WNW) 14:25:05 437.525
ITAMSAT 1 29 Mar 14:41:49 14:46:47 47° 72° (ENE) 14:51:48 435.822/435.867
SWISSCUBE 29 Mar 14:50:20 14:54:54 44° 99° (E) 14:59:27 437.505
BEESAT 29 Mar 14:53:18 14:57:52 43° 98° (E) 15:02:25 436.000
PCSat 29 Mar 14:57:09 15:01:47 30° 109° (ESE) 15:06:31 145.827
O/OREOS (USA 219) 29 Mar 15:02:37 15:07:11 82° 67° (ENE) 15:11:42 437.305
YUBILEINY 29 Mar 15:10:27 15:19:16 79° 279° (W) 15:28:10 435.215
JAS-2 29 Mar 15:14:06 15:17:37 15° 55° (NE) 15:21:39 435.910
Oscar 19 29 Mar 15:16:40 15:20:56 26° 266° (W) 15:25:09 437.125/150
Gurwin Techsat 1B 29 Mar 15:30:19 15:35:37 77° 256° (WSW) 15:40:59 435.225
STARS 29 Mar 15:35:51 15:37:53 13° 90° (E) 15:40:10 437.465
ITUPSAT 1 29 Mar 15:40:05 15:44:50 62° 286° (WNW) 15:49:33 437.325
AO-7 29 Mar 15:48:45 15:56:15 41° 63° (ENE) 16:03:52 29.400- 29.500
HORYU 2 29 Mar 16:11:54 16:16:17 66° 75° (ENE) 16:20:44 437.375
ITAMSAT 1 29 Mar 16:22:44 16:26:35 20° 268° (W) 16:30:16 435.822/435.867
SWISSCUBE 29 Mar 16:29:02 16:32:28 19° 294° (WNW) 16:35:45 437.505
BEESAT 29 Mar 16:31:58 16:35:26 20° 294° (WNW) 16:38:45 436.000
AIST 1 29 Mar 16:35:06 16:39:24 68° 265° (W) 16:43:38
KKS-1 29 Mar 16:38:25 16:42:53 75° 284° (WNW) 16:47:18 437.445
PCSat 29 Mar 16:40:06 16:45:06 37° 306° (NW) 16:50:07 145.827
JAS-2 29 Mar 16:54:35 17:01:23 75° 74° (ENE) 17:09:01 435.910
STARS 29 Mar 17:10:27 17:14:44 51° 287° (WNW) 17:19:00 437.465
YUBILEINY 29 Mar 17:12:54 17:17:55 15° 302° (WNW) 17:22:22 435.215
JUGNU 29 Mar 17:17:02 17:18:23 11° 183° (S) 17:19:43 437.505
